Location: Glencliff
(36.1226°N, 86.7183°W)
Time: 12:03:39
(UTC+00:00)

SJ-6B - Pass Details

Date: 25 August 2019
Orbit: 511 x 581 km, 97.7° (Epoch: 15 September)

Event Time Altitude Azimuth Distance (km) Brightness Sun altitude
Exits shadow 01:33:38 - 168° (SSE) 1,925 5.2 -13.7°
Reaches altitude 10° 01:33:53 10° 168° (SSE) 1,818 5.1 -13.8°
Maximum altitude 01:37:50 88° 256° (WSW) 565 2.8 -14.5°
Drops below altitude 10° 01:41:54 10° 348° (NNW) 1,872 6.1 -15.3°
Sets 01:44:04 0° 348° (NNW) 2,783 7.0 -15.6°
